[[{"header":{"parameterUnit":"m.s-1","parameterCategory":1,"la1":30.2991,"la2":30.254,"lo1":-89.0895,"lo2":-89.0444,"dy":0.0017,"dx":0.0017,"nx":28,"ny":28,"refTime":"2024-08-28T03:00:00:Z","depth":0,"parameterNumber":2,"parameterNumberName":"U-component_of_WINDS"},"data":[0,0,0,0,0,0,0,0,0,0,0,0,0,0,0,0,0,0,0,0,0,0,0,0,0,0,0,0,0,0,0,0,0,0,0,0,0,0,0,0,0,0,0,0,0,0,0,0,0,0,0,0,0,0,0,0,0,0,-0.8312,-0.8312,0,-0.8306,-0.8305,-0.8305,-0.8264,-0.8263,-0.8262,-0.8261,-0.8256,-0.8257,-0.8257,0,0,0,0,0,0,0,0,0,0,0,0,0,-0.8289,-0.829,-0.8312,-0.8312,-0.8312,-0.8306,-0.8305,-0.8305,-0.8265,-0.8263,-0.8262,-0.8261,-0.8256,-0.8257,-0.8257,0,0,0,0,0,0,0,0,0,0,0,0,0,-0.8293,-0.829,-0.8312,-0.829,-0.8288,-0.8306,-0.8305,-0.8305,-0.8265,-0.8263,-0.8262,-0.826,-0.8255,-0.8256,-0.8258,-0.8295,0,0,-0.8261,-0.8262,0,0,0,0,0,0,0,0,-0.8293,-0.8294,-0.8294,-0.8292,-0.829,-0.8284,-0.8295,-0.8302,-0.8265,-0.8274,-0.8261,-0.826,-0.8267,-0.8267,-0.8269,-0.8295,-0.8294,-0.8261,-0.8262,-0.8263,-0.8263,0,0,0,0,0,0,0,-0.8292,-0.8294,-0.8309,-0.8294,-0.8291,-0.8282,-0.828,-0.8297,-0.8279,-0.8273,-0.827,-0.827,-0.8265,-0.8268,-0.8268,-0.8294,-0.8261,-0.8262,-0.8263,-0.8264,-0.8351,-0.8353,0,0,0,0,0,0,-0.8295,-0.8294,-0.8309,-0.8309,-0.8287,-0.8283,-0.8282,-0.8287,-0.8278,-0.8276,-0.8271,-0.8268,-0.8267,-0.8267,-0.8268,-0.8312,-0.8263,-0.8264,-0.8264,-0.835,-0.8352,-0.8354,0,0,0,0,0,0,-0.8295,-0.8297,-0.831,-0.8301,-0.8301,-0.8285,-0.8292,-0.8288,-0.8291,-0.8277,-0.8274,-0.8277,-0.8265,-0.8266,-0.8289,-0.8311,-0.8264,-0.8265,-0.8348,-0.835,-0.8353,-0.8399,0,0,0,0,0,0,-0.8294,-0.8297,-0.8311,-0.8301,-0.8302,-0.833,-0.8293,-0.8289,-0.8293,-0.8289,-0.8282,-0.8279,-0.8264,-0.8287,-0.829,-0.8312,-0.8266,-0.8346,-0.8349,-0.8352,-0.8396,-0.8403,-0.8409,0,0,0,0,0,-0.8294,-0.8324,-0.8312,-0.8314,-0.8319,-0.8332,-0.8332,-0.8314,-0.8295,-0.8309,-0.83,-0.8279,-0.8308,-0.829,-0.8293,-0.8315,-0.8344,-0.8348,-0.8352,-0.8392,-0.8401,-0.8409,0,0,0,0,0,0,-0.8337,-0.8322,-0.8308,-0.8336,-0.8336,-0.8325,-0.8341,-0.8324,-0.8329,-0.8325,-0.8303,-0.8302,-0.8327,-0.8323,-0.8303,-0.8351,-0.8323,-0.8327,-0.8353,-0.8361,-0.8368,-0.8368,-0.8267,0,0,0,0,0,-0.8349,-0.836,-0.8347,-0.8374,-0.8374,-0.8358,-0.8363,-0.8349,-0.8347,-0.8347,-0.834,-0.8339,-0.8348,-0.8354,-0.8362,-0.8395,-0.8393,-0.8412,-0.8418,-0.8424,-0.8428,-0.8446,-0.8454,-0.8366,-0.8366,-0.8365,0,0,-0.8376,-0.8369,-0.8378,-0.8382,-0.838,-0.8392,-0.8358,-0.8372,-0.8382,-0.8349,-0.837,-0.8365,-0.8363,-0.8391,-0.8403,-0.8388,-0.8452,-0.8429,-0.8433,-0.8434,-0.8451,-0.8459,-0.8467,-0.8368,-0.8368,-0.8367,0,0,-0.843,-0.8426,-0.8448,-0.8446,-0.8443,-0.8433,-0.8438,-0.843,-0.8425,-0.8446,-0.8422,-0.8433,-0.8448,-0.8448,-0.845,-0.8505,-0.8487,-0.8508,-0.8544,-0.8562,-0.8569,-0.8575,-0.8595,-0.8603,-0.8512,-0.8513,-0.8513,0,-0.8464,-0.8481,-0.8461,-0.8478,-0.8481,-0.8452,-0.8474,-0.8473,-0.8473,-0.8476,-0.846,-0.8479,-0.8476,-0.8504,-0.8517,-0.852,-0.8526,-0.8509,-0.8569,-0.8575,-0.858,-0.86,-0.8607,-0.8515,-0.8515,-0.8515,-0.8514,0,-0.8523,-0.8535,-0.8553,-0.8554,-0.8559,-0.8578,-0.8561,-0.8569,-0.8555,-0.8546,-0.8568,-0.8563,-0.8569,-0.8575,-0.8561,-0.8601,-0.8592,-0.8573,-0.8544,-0.8592,-0.861,-0.8617,-0.8519,-0.8518,-0.8517,-0.8517,0,0,-0.8604,-0.8594,-0.86,-0.8601,-0.8595,-0.8605,-0.8623,-0.8629,-0.8636,-0.8637,-0.8652,-0.8667,-0.8649,-0.8651,-0.8638,-0.8653,-0.8698,-0.8632,-0.8632,-0.8645,-0.8743,-0.8758,-0.8766,-0.8686,-0.8687,-0.8688,-0.8743,0,-0.8657,-0.8687,-0.867,-0.8703,-0.8715,-0.8688,-0.8704,-0.8703,-0.8695,-0.8704,-0.8696,-0.8707,-0.8682,-0.8684,-0.8698,-0.869,-0.8718,-0.8686,-0.87,-0.8701,-0.8702,-0.8775,-0.8791,-0.8843,-0.875,-0.8751,-0.8752,0,-0.8722,-0.8726,-0.876,-0.8753,-0.8758,-0.8772,-0.8777,-0.8786,-0.8784,-0.8778,-0.8781,-0.8764,-0.8782,-0.8753,-0.8778,-0.8756,-0.8762,-0.8759,-0.876,-0.8761,-0.873,-0.8779,-0.8859,-0.8867,-0.8762,-0.8761,-0.8761,0,-0.8779,-0.8793,-0.8815,-0.8816,-0.8808,-0.8819,-0.8817,-0.8814,-0.8819,-0.8823,-0.8826,-0.8832,-0.8835,-0.8841,-0.8826,-0.8807,-0.8853,-0.8823,-0.8849,-0.885,-0.886,-0.886,-0.8943,-0.8863,-0.8863,-0.8863,-0.8863,0,-0.884,-0.8862,-0.884,-0.8854,-0.8878,-0.8859,-0.8883,-0.8878,-0.8876,-0.8888,-0.8865,-0.8878,-0.8857,-0.8868,-0.8857,-0.8879,-0.8881,-0.8877,-0.8874,-0.8879,-0.888,-0.8882,-0.8879,-0.8865,-0.8864,-0.8864,-0.8864,0,-0.8908,-0.8894,-0.8916,-0.8907,-0.8906,-0.8924,-0.8917,-0.8929,-0.892,-0.8937,-0.8939,-0.8926,-0.8937,-0.8923,-0.8933,-0.8925,-0.8956,-0.8948,-0.8957,-0.8955,-0.8981,-0.8979,-0.9069,-0.908,-0.8993,-0.8994,-0.8995,0,-0.8948,-0.8964,-0.8957,-0.8964,-0.8962,-0.8974,-0.8979,-0.896,-0.8966,-0.8966,-0.8979,-0.8989,-0.8995,-0.9015,-0.9006,-0.9014,-0.9005,-0.9036,-0.9006,-0.9012,-0.9006,-0.9006,-0.9008,-0.9043,-0.9044,-0.9044,-0.9045,0,-0.9021,-0.9013,-0.9021,-0.9027,-0.9033,-0.9037,-0.9039,-0.9046,-0.9027,-0.9035,-0.9046,-0.9052,-0.9062,-0.9072,-0.9077,-0.9075,-0.9058,-0.9055,-0.9061,-0.9067,-0.9072,-0.907,-0.8974,-0.9053,-0.9052,-0.9051,-0.9051,-0.9051,-0.9076,-0.909,-0.9087,-0.9097,-0.9096,-0.9099,-0.911,-0.9103,-0.9112,-0.9119,-0.9108,-0.9122,-0.9121,-0.9126,-0.9126,-0.9138,-0.9124,-0.9134,-0.9136,-0.9139,-0.9143,-0.907,-0.9138,-0.9138,-0.9138,-0.9138,-0.9138,0,-0.9148,-0.9145,-0.9154,-0.9158,-0.9166,-0.9148,-0.915,-0.9158,-0.917,-0.9171,-0.9178,-0.9191,-0.9201,-0.9193,-0.9201,-0.9212,-0.9204,-0.9214,-0.9214,-0.9214,-0.9154,-0.9148,-0.9221,-0.9221,-0.9221,-0.9221,-0.9221,-0.9221,-0.9187,-0.9209,-0.9201,-0.9224,-0.922,-0.9234,-0.9237,-0.9239,-0.9239,-0.9255,-0.9263,-0.9258,-0.9255,-0.9263,-0.9271,-0.9268,-0.9273,-0.9287,-0.9281,-0.9226,-0.9218,-0.921,-0.9204,-0.9288,-0.9288,-0.934,-0.934,-0.9341]},{"header":{"parameterUnit":"m.s-1","parameterCategory":1,"la1":30.2991,"la2":30.254,"lo1":-89.0895,"lo2":-89.0444,"dy":0.0017,"dx":0.0017,"nx":28,"ny":28,"refTime":"2024-08-28T03:00:00:Z","depth":0,"parameterNumber":3,"parameterNumberName":"V-component_of_WINDS"},"data":[0,0,0,0,0,0,0,0,0,0,0,0,0,0,0,0,0,0,0,0,0,0,0,0,0,0,0,0,0,0,0,0,0,0,0,0,0,0,0,0,0,0,0,0,0,0,0,0,0,0,0,0,0,0,0,0,0,0,1.2752,1.2753,0,1.2773,1.2774,1.2774,1.2804,1.2804,1.2805,1.2805,1.2825,1.2825,1.2825,0,0,0,0,0,0,0,0,0,0,0,0,0,1.2736,1.2736,1.2752,1.2753,1.2753,1.2773,1.2774,1.2774,1.2804,1.2804,1.2805,1.2805,1.2825,1.2825,1.2825,0,0,0,0,0,0,0,0,0,0,0,0,0,1.2748,1.2736,1.2752,1.277,1.2772,1.2773,1.2774,1.2774,1.2803,1.2804,1.2805,1.2806,1.2825,1.2825,1.2825,1.281,0,0,1.2825,1.2825,0,0,0,0,0,0,0,0,1.2748,1.2749,1.2767,1.2769,1.2771,1.2787,1.2775,1.2786,1.2803,1.2791,1.2805,1.2806,1.2811,1.2813,1.2815,1.2811,1.2812,1.2825,1.2825,1.2825,1.2825,0,0,0,0,0,0,0,1.2747,1.2748,1.2761,1.2767,1.277,1.2776,1.2779,1.2777,1.2797,1.2793,1.2795,1.2797,1.2813,1.2815,1.2815,1.2812,1.2825,1.2825,1.2825,1.2825,1.2796,1.2795,0,0,0,0,0,0,1.2743,1.2747,1.276,1.2761,1.2761,1.2776,1.2779,1.2781,1.2797,1.28,1.2796,1.2798,1.2814,1.2815,1.2816,1.2799,1.2825,1.2825,1.2825,1.2797,1.2796,1.2795,0,0,0,0,0,0,1.2743,1.2744,1.2759,1.2755,1.2757,1.2776,1.2777,1.2781,1.2783,1.28,1.2803,1.2795,1.2815,1.2816,1.2811,1.28,1.2825,1.2825,1.2798,1.2797,1.2796,1.2766,0,0,0,0,0,0,1.2742,1.2744,1.2739,1.2755,1.2757,1.2754,1.2777,1.2781,1.2783,1.2786,1.2799,1.2802,1.2816,1.2811,1.2811,1.2801,1.2825,1.2799,1.2797,1.2796,1.2768,1.2763,1.276,0,0,0,0,0,1.2742,1.2729,1.2738,1.274,1.2752,1.2754,1.2755,1.2771,1.2782,1.2777,1.2788,1.2802,1.2802,1.281,1.2811,1.28,1.28,1.2798,1.2796,1.2769,1.2764,1.276,0,0,0,0,0,0,1.2711,1.2732,1.2742,1.2735,1.2742,1.2759,1.2752,1.2765,1.2769,1.2772,1.2791,1.2794,1.2786,1.2793,1.2802,1.2786,1.2803,1.2801,1.2782,1.2778,1.2774,1.2772,1.2825,0,0,0,0,0,1.2704,1.2704,1.2722,1.2713,1.2717,1.2734,1.2735,1.2747,1.2755,1.2759,1.2769,1.2776,1.2778,1.2778,1.278,1.2769,1.2772,1.2762,1.2758,1.2755,1.2753,1.2747,1.2742,1.2789,1.2789,1.2789,0,0,1.2688,1.2699,1.2698,1.2708,1.2715,1.2714,1.2736,1.2735,1.2734,1.2758,1.2754,1.2762,1.2771,1.2763,1.276,1.2768,1.2741,1.2753,1.275,1.275,1.2744,1.274,1.2736,1.2788,1.2788,1.2788,0,0,1.2659,1.2668,1.2661,1.2668,1.2679,1.2691,1.2689,1.2704,1.271,1.2707,1.2724,1.2724,1.2726,1.2732,1.2735,1.2708,1.2721,1.2708,1.2688,1.2682,1.2678,1.2675,1.2665,1.2661,1.2706,1.2706,1.2706,0,1.2637,1.2638,1.2656,1.2654,1.2657,1.2679,1.2673,1.2679,1.2689,1.2691,1.2701,1.2704,1.2712,1.2705,1.2698,1.27,1.2698,1.2707,1.2677,1.2674,1.2672,1.2662,1.2658,1.2705,1.2705,1.2705,1.2705,0,1.2611,1.2611,1.2605,1.2615,1.2618,1.2613,1.263,1.2631,1.2642,1.2652,1.2648,1.2658,1.2663,1.2662,1.2673,1.2657,1.2662,1.2674,1.2691,1.2665,1.2656,1.2653,1.2702,1.2703,1.2703,1.2704,0,0,1.2563,1.2584,1.2581,1.2586,1.26,1.26,1.2596,1.2601,1.2601,1.2608,1.2604,1.2606,1.2618,1.2621,1.2633,1.2628,1.2605,1.2641,1.2641,1.2633,1.2586,1.2576,1.2572,1.2614,1.2613,1.2613,1.2585,0,1.2536,1.2531,1.2548,1.2538,1.2538,1.256,1.2556,1.2564,1.2573,1.2574,1.2584,1.2585,1.26,1.2603,1.2598,1.2609,1.2596,1.2611,1.261,1.261,1.2607,1.2567,1.2557,1.2531,1.2582,1.2582,1.2581,0,1.2504,1.251,1.25,1.2515,1.2515,1.2512,1.2518,1.2519,1.2527,1.2535,1.2539,1.2553,1.2549,1.2566,1.2561,1.2571,1.2571,1.2576,1.2576,1.2576,1.2593,1.2566,1.2523,1.2518,1.2576,1.2576,1.2577,0,1.2469,1.2474,1.2469,1.2473,1.249,1.2487,1.2493,1.2503,1.2505,1.251,1.2511,1.2515,1.2518,1.252,1.2535,1.2545,1.2528,1.2545,1.2533,1.2532,1.2527,1.2527,1.2483,1.2529,1.2529,1.2529,1.2529,0,1.2437,1.243,1.2454,1.2451,1.2444,1.2462,1.2455,1.2463,1.2472,1.247,1.2489,1.2487,1.2506,1.2506,1.2518,1.2511,1.2512,1.2517,1.252,1.2515,1.2514,1.2515,1.2517,1.2528,1.2528,1.2528,1.2529,0,1.2396,1.2412,1.2408,1.2424,1.2428,1.2422,1.2436,1.2433,1.2444,1.2441,1.2442,1.2458,1.2459,1.2474,1.2478,1.2486,1.2474,1.2481,1.2472,1.2473,1.246,1.246,1.2414,1.2408,1.2458,1.2458,1.2457,0,1.2374,1.237,1.2386,1.2386,1.2392,1.2393,1.2395,1.2413,1.2415,1.2424,1.242,1.2423,1.2426,1.2426,1.2438,1.2441,1.2447,1.2431,1.2448,1.2443,1.2446,1.2446,1.2445,1.2427,1.2426,1.2426,1.2425,0,1.2333,1.2341,1.2344,1.235,1.2352,1.2357,1.2363,1.2363,1.2382,1.2383,1.2384,1.2387,1.2391,1.2393,1.2398,1.2404,1.2417,1.242,1.2417,1.2412,1.2406,1.2408,1.2461,1.2421,1.2421,1.2422,1.2422,1.2422,1.2301,1.2298,1.2309,1.2311,1.2318,1.2323,1.2321,1.2332,1.2334,1.2339,1.235,1.2349,1.2358,1.2366,1.2371,1.237,1.2379,1.2375,1.2374,1.2372,1.2369,1.2407,1.2372,1.2372,1.2372,1.2372,1.2372,0,1.2261,1.2269,1.2271,1.2279,1.2281,1.2295,1.2302,1.2302,1.2302,1.2309,1.2312,1.2313,1.2315,1.2327,1.233,1.2327,1.2334,1.2328,1.2328,1.2329,1.2362,1.2364,1.2322,1.2322,1.2322,1.2322,1.2323,1.2323,1.224,1.2235,1.2244,1.2243,1.2251,1.2251,1.2254,1.2259,1.2265,1.2266,1.2267,1.2276,1.2285,1.2289,1.2291,1.2294,1.2294,1.2286,1.2291,1.2322,1.2326,1.2331,1.2333,1.2286,1.2286,1.2258,1.2258,1.2258]}]]